Powrót do katalogu

BLOCK DM-SL R/B

AktywnyHEO
NORAD 28645·ROCKET BODY· XX

Wystrzelony Apr 26, 2005 z Sea Launch Platform

Loading…

Następne Przeloty (najbliższe 24 godziny)

TLE

ŚwieżeSource: Space-Track

Epoka: Sep 14, 2026, 14:29 UTC

1 28645U 05015B   26257.60356957  .00009530  00000-0  11123-2 0  9996
2 28645   0.0947 347.0539 6467977 150.9614 295.7490  3.38597440220913

Śledź BLOCK DM-SL R/B w czasie rzeczywistym z AllMySat

Download on the App Store